{"data":{"norad_id":49333,"epoch":"2026-09-20T00:01:48.207360Z","epoch_age_seconds":65057,"freshness":"FRESH","line1":"1 49333U 21095B   26263.00125240  .00000130  00000+0  00000+0 0  9994","line2":"2 49333   0.0166 216.8775 0001788 310.7763 237.2230  1.00274721 18893","mean_motion":1.00274721,"eccentricity":0.0001788,"inclination_deg":0.0166,"raan_deg":216.8775,"arg_perigee_deg":310.7763,"mean_anomaly_deg":237.223,"bstar":0,"rev_number":1889,"period_min":1436.0548557398,"perigee_km":35778.23300698,"apogee_km":35793.310820807,"semimajor_km":42163.908913893,"source":"CELESTRAK","updated_at":"2026-09-20T09:00:35.300474Z"}}